Regional Weather Roundup
Issued by NWS

Home | Current Version | Previous Version | Graphics & Text | Print | Product List | Glossary On
Versions: 1 2 3 4 5 6 7 8 9 10 11 12 13 14 15 16 17 18 19 20 21 22 23 24 25 26 27 28 29 30 31 32 33 34 35 36 37 38 39 40 41 42 43 44 45 46 47 48 49 50
030
ASUS43 KFSD 220702
RWRSD

WEATHER ROUNDUP FOR SOUTH DAKOTA
NATIONAL WEATHER SERVICE SIOUX FALLS SD
100 AM CST WED FEB 22 2017

NOTE: "FAIR" INDICATES FEW OR NO CLOUDS BELOW 12,000 FEET WITH NO
SIGNIFICANT WEATHER AND/OR OBSTRUCTIONS TO VISIBILITY.


SDZ001>005-009-010-012>017-220800-
NORTHWEST AND NORTH CENTRAL SOUTH DAKOTA

CITY           SKY/WX    TMP DP  RH WIND       PRES   REMARKS
BUFFALO          N/A     42  36  79 SE7       29.57F
FAITH            N/A     41  37  86 S6        29.67R
MOBRIDGE       CLOUDY    38  32  79 S6        29.62R
$$

SDZ012>016-024>037-041>051-057-063-072>074-220800-
SOUTHWEST AND SOUTH CENTRAL SOUTH DAKOTA

CITY           SKY/WX    TMP DP  RH WIND       PRES   REMARKS
RAPID CTY ARPT LGT RAIN  46  37  71 W28G37    29.74R
PIERRE         PTCLDY    46  38  73 N7        29.60F
CUSTER         MIX PCPN  37  34  89 N14       29.77R
ELLSWORTH AFB  LGT RAIN  47  37  68 W24G40    29.72
PHILIP         CLOUDY    52  37  56 NW8       29.65R
PINE RIDGE     MOCLDY    39  31  72 CALM      29.75R
SPEARFISH      FAIR      50  27  40 SW15G23   29.68F
WINNER         FAIR      49  36  61 SW8       29.68F
$$

SDZ004>011-016>023-039-040-220800-
NORTHEAST SOUTH DAKOTA

CITY           SKY/WX    TMP DP  RH WIND       PRES   REMARKS
ABERDEEN       CLOUDY    41  35  79 NE8       29.62F
WATERTOWN      CLOUDY    48  44  86 NE7       29.62F
BROOKINGS      MOCLDY    49  39  68 N12G39    29.66R
SISSETON         N/A     38  38 100 W5        29.64F
$$

SDZ017-020-022-023-036>040-048>070-220800-
SOUTHEAST SOUTH DAKOTA

CITY           SKY/WX    TMP DP  RH WIND       PRES   REMARKS
SIOUX FALLS    PTCLDY    43  38  82 SE5       29.66S
HURON          CLEAR     42  40  92 SE3       29.61F
CHAMBERLAIN    PTCLDY    45  38  78 CALM      29.65S
MITCHELL       PTCLDY    47  36  65 SW8       29.63F
YANKTON        CLEAR     54  34  47 W9        29.64S
$$

ABBREVIATIONS USED IN REMARKS
   TC - TEMPERATURE IN CELSIUS
  WCI - WIND CHILL INDEX
   HX - HEAT INDEX
  VSB - VISIBILITY





USA.gov is the U.S. government's official web portal to all federal, state and local government web resources and services.